Weather History for KTDZ - December, 2012

Change the Weather History Date:

Monday, December 10, 2012

  Actual Average (KTOL) Record (KTOL)
Temperature  
Mean Temperature 40 °F 31 °F  
Max Temperature 45 °F 38 °F 67 °F (1971)
Min Temperature 34 °F 25 °F -6 °F (1958)
Degree Days  
Heating Degree Days 26 34  
Month to date heating degree days 321  
Since 1 July heating degree days 1554  
Cooling Degree Days 0 0  
Month to date cooling degree days 0  
Year to date cooling degree days 793  
Moisture  
Dew Point 36 °F    
Average Humidity 84    
Maximum Humidity 100    
Minimum Humidity 67    
Precipitation  
Precipitation 0.03 in 0.09 in - ()
Month to date precipitation 0.91  
Year to date precipitation 32.47  
Snow  
Snow 0.00 in 0.20 in - ()
Month to date snowfall 1.8  
Since 1 July snowfall 3.9  
Snow Depth -    
Sea Level Pressure  
Sea Level Pressure 29.70 in    
Wind  
Wind Speed 9 mph (West)    
Max Wind Speed 17 mph    
Max Gust Speed 22 mph    
Visibility 8 miles    
Events Rain    
T = Trace of Precipitation, MM = Missing Value Source: NWS Daily Summary

Daily Weather History Graph

Daily Weather History Graph

Search for Another Location

Airport or City:

Trip Planner

Search our weather history database for the weather conditions in past years. The results will help you decide how hot, cold, wet, or windy it might be!

Date:

Astronomy

Dec. 10, 2012 Rise Set
Actual Time 7:50 AM EST 5:03 PM EST
Civil Twilight 7:18 AM EST 5:35 PM EST
Nautical Twilight 6:43 AM EST 6:10 PM EST
Astronomical Twilight 6:10 AM EST 6:43 PM EST
Moon 4:30 AM EST (12/10) 2:53 PM EST (12/10)
Length of Visible Light 10h 16m
Length of Day
9h 13m
Waning Crescent, 10% of the Moon is Illuminated
Dec 10
Waning Crescent
Dec 13
New
Dec 20
First Quarter
Dec 28
Full
Jan 4
Last Quarter

Hourly Weather History & Observations

Time (EST) Temp. Windchill Dew Point Humidity Pressure Visibility Wind Dir Wind Speed Gust Speed Precip Events Conditions
12:28 AM 42.8 °F - 42.8 °F 100% 29.63 in 2.0 mi Calm Calm - 0.02 in Rain Light Rain
12:46 AM 42.8 °F 41.1 °F 42.8 °F 100% 29.64 in 2.0 mi WSW 3.5 mph - 0.02 in   Overcast
12:53 AM 44.1 °F 41.5 °F 43.0 °F 96% 29.65 in 2.5 mi West 4.6 mph - 0.02 in   Overcast
1:04 AM 44.6 °F 41.4 °F 42.8 °F 93% 29.64 in 2.5 mi WSW 5.8 mph - N/A   Overcast
1:09 AM 44.6 °F 40.7 °F 42.8 °F 93% 29.64 in 3.0 mi West 6.9 mph - N/A   Overcast
1:53 AM 45.0 °F 39.3 °F 44.1 °F 97% 29.65 in 6.0 mi West 11.5 mph - N/A   Overcast
2:02 AM 44.6 °F 39.2 °F 42.8 °F 93% 29.64 in 6.0 mi West 10.4 mph - N/A   Overcast
2:46 AM 44.6 °F 38.8 °F 42.8 °F 93% 29.65 in 9.0 mi West 11.5 mph - N/A   Overcast
2:53 AM 44.1 °F 38.6 °F 42.1 °F 93% 29.66 in 9.0 mi West 10.4 mph - N/A   Overcast
3:24 AM 44.6 °F 39.7 °F 42.8 °F 93% 29.65 in 10.0 mi West 9.2 mph - N/A   Overcast
3:53 AM 44.1 °F 38.1 °F 42.1 °F 93% 29.65 in 8.0 mi West 11.5 mph - N/A   Overcast
4:53 AM 44.1 °F 38.6 °F 42.1 °F 93% 29.65 in 6.0 mi West 10.4 mph - N/A   Overcast
5:24 AM 42.8 °F 37.5 °F 42.8 °F 100% 29.63 in 3.0 mi West 9.2 mph - N/A   Overcast
5:53 AM 44.1 °F 38.1 °F 41.0 °F 89% 29.65 in 7.0 mi WSW 11.5 mph - N/A   Overcast
6:41 AM 42.8 °F 35.4 °F 39.2 °F 87% 29.65 in 7.0 mi West 15.0 mph - 0.01 in   Overcast
6:53 AM 42.1 °F 34.2 °F 39.0 °F 89% 29.67 in 8.0 mi West 16.1 mph - 0.01 in   Overcast
7:42 AM 41.0 °F 33.5 °F 37.4 °F 87% 29.67 in 9.0 mi West 13.8 mph - N/A   Overcast
7:53 AM 39.9 °F 31.4 °F 36.0 °F 86% 29.68 in 10.0 mi West 16.1 mph 21.9 mph N/A   Overcast
8:41 AM 39.2 °F 30.2 °F 35.6 °F 87% 29.70 in 8.0 mi West 17.3 mph 21.9 mph N/A   Overcast
8:53 AM 39.9 °F 32.1 °F 36.0 °F 86% 29.71 in 8.0 mi West 13.8 mph - N/A   Overcast
9:53 AM 39.9 °F 33.4 °F 35.1 °F 83% 29.70 in 10.0 mi WSW 10.4 mph - N/A   Overcast
10:46 AM 41.0 °F 34.3 °F 35.6 °F 81% 29.69 in 10.0 mi WSW 11.5 mph - N/A   Overcast
10:53 AM 41.0 °F 32.8 °F 35.1 °F 79% 29.70 in 10.0 mi West 16.1 mph - N/A   Overcast
11:01 AM 39.2 °F 32.0 °F 35.6 °F 87% 29.69 in 10.0 mi West 11.5 mph - N/A   Mostly Cloudy
11:14 AM 39.2 °F 31.6 °F 35.6 °F 87% 29.70 in 10.0 mi West 12.7 mph - N/A   Mostly Cloudy
11:49 AM 39.2 °F 30.5 °F 35.6 °F 87% 29.68 in 10.0 mi West 16.1 mph - N/A   Overcast
11:53 AM 41.0 °F 33.9 °F 35.1 °F 79% 29.69 in 10.0 mi West 12.7 mph - N/A   Mostly Cloudy
12:08 PM 39.2 °F 30.8 °F 33.8 °F 81% 29.68 in 10.0 mi West 15.0 mph - N/A   Overcast
12:53 PM 41.0 °F 33.1 °F 34.0 °F 76% 29.68 in 10.0 mi West 15.0 mph - N/A   Overcast
1:31 PM 39.2 °F 31.2 °F 33.8 °F 81% 29.67 in 10.0 mi West 13.8 mph - N/A   Overcast
1:53 PM 39.9 °F 32.5 °F 33.1 °F 77% 29.69 in 10.0 mi West 12.7 mph - N/A   Overcast
2:20 PM 41.0 °F 34.7 °F 33.8 °F 76% 29.68 in 10.0 mi West 10.4 mph - N/A   Overcast
2:53 PM 41.0 °F 34.3 °F 32.0 °F 70% 29.69 in 10.0 mi WNW 11.5 mph - N/A   Overcast
3:44 PM 39.2 °F 33.0 °F 32.0 °F 75% 29.71 in 10.0 mi West 9.2 mph - N/A   Overcast
3:53 PM 39.9 °F 31.8 °F 32.0 °F 73% 29.72 in 10.0 mi West 15.0 mph - N/A   Overcast
4:22 PM 39.2 °F 32.0 °F 32.0 °F 75% 29.71 in 10.0 mi West 11.5 mph - N/A   Overcast
4:53 PM 39.0 °F 34.0 °F 32.0 °F 76% 29.72 in 10.0 mi WNW 6.9 mph - N/A   Overcast
5:53 PM 37.9 °F 30.0 °F 30.9 °F 76% 29.75 in 10.0 mi WNW 12.7 mph - N/A   Overcast
6:53 PM 37.0 °F 29.3 °F 28.0 °F 70% 29.79 in 10.0 mi NNW 11.5 mph - N/A   Overcast
7:18 PM 35.6 °F 28.6 °F 26.6 °F 70% 29.79 in 10.0 mi NNW 9.2 mph - N/A   Overcast
7:53 PM 35.1 °F 27.4 °F 26.1 °F 70% 29.82 in 10.0 mi NNW 10.4 mph - N/A   Overcast
8:53 PM 35.1 °F 28.6 °F 25.0 °F 67% 29.83 in 10.0 mi NNW 8.1 mph - N/A   Overcast
9:53 PM 34.0 °F 28.8 °F 25.0 °F 70% 29.86 in 10.0 mi NW 5.8 mph - N/A   Overcast
10:53 PM 34.0 °F 28.8 °F 26.1 °F 73% 29.88 in 10.0 mi West 5.8 mph - N/A   Overcast
11:53 PM 34.0 °F 29.8 °F 27.0 °F 75% 29.90 in 10.0 mi West 4.6 mph - N/A   Overcast